Ypsilanti, MI

2:04 PM EDT on June 22, 2017 (GMT -0400)
Willow Run

Weather History for KYIP - October, 2012

Change the Weather History Date:

Monday, October 15, 2012

  Actual Average Record
Temperature  
Mean Temperature 52 °F -  
Max Temperature 57 °F 62 °F 82 °F (1989)
Min Temperature 48 °F 44 °F 28 °F (2006)
Degree Days  
Heating Degree Days 12    
Growing Degree Days 2 (Base 50)    
Moisture  
Dew Point 42 °F    
Average Humidity 66    
Maximum Humidity 80    
Minimum Humidity 57    
Precipitation  
Precipitation 0.00 in - - ()
Sea Level Pressure  
Sea Level Pressure 29.78 in    
Wind  
Wind Speed 17 mph (WNW)    
Max Wind Speed 23 mph    
Max Gust Speed 43 mph    
Visibility 10 miles    
Events Rain    
Averages and records for this station are not official NWS values.
T = Trace of Precipitation, MM = Missing Value Source: NWS Daily Summary

Daily Weather History Graph

Daily Weather History Graph

Search for Another Location

Airport or City:

Trip Planner

Search our weather history database for the weather conditions in past years. The results will help you decide how hot, cold, wet, or windy it might be!

Date:

Astronomy

Oct. 15, 2012 Rise Set
Actual Time 7:47 AM EDT 6:51 PM EDT
Civil Twilight 7:19 AM EDT 7:19 PM EDT
Nautical Twilight 6:46 AM EDT 7:52 PM EDT
Astronomical Twilight 6:14 AM EDT 8:24 PM EDT
Moon 7:57 AM EDT (10/15) 6:48 PM EDT (10/15)
Length of Visible Light 12h 00m
Length of Day
11h 04m
New Moon, 0% of the Moon is Illuminated
Oct 15
New Moon
Oct 21
First Quarter
Oct 29
Full
Nov 6
Last Quarter
Nov 13
New

Hourly Weather History & Observations

Time (EDT) Temp. Dew Point Humidity Pressure Visibility Wind Dir Wind Speed Gust Speed Precip Events Conditions
12:53 AM 57.9 °F 48.9 °F 72% 29.54 in 10.0 mi West 23.0 mph 42.6 mph N/A   Overcast
1:53 AM 57.0 °F 46.0 °F 67% 29.58 in 10.0 mi West 19.6 mph 31.1 mph 0.00 in   Overcast
2:53 AM 55.9 °F 46.0 °F 69% 29.60 in 10.0 mi West 21.9 mph 33.4 mph N/A   Overcast
3:53 AM 53.1 °F 46.9 °F 80% 29.63 in 10.0 mi West 17.3 mph 21.9 mph 0.00 in Rain Light Rain
4:53 AM 53.1 °F 45.0 °F 74% 29.64 in 10.0 mi West 18.4 mph 24.2 mph N/A   Overcast
5:53 AM 52.0 °F 44.1 °F 74% 29.67 in 10.0 mi WNW 18.4 mph 24.2 mph N/A   Overcast
6:53 AM 52.0 °F 43.0 °F 71% 29.70 in 10.0 mi West 15.0 mph 23.0 mph N/A   Overcast
8:49 AM 51.8 °F 42.8 °F 71% 29.74 in 10.0 mi West 15.0 mph - N/A   Overcast
8:53 AM 53.1 °F 41.0 °F 64% 29.74 in 10.0 mi West 13.8 mph - N/A   Overcast
9:53 AM 52.0 °F 39.9 °F 63% 29.75 in 10.0 mi WNW 17.3 mph 26.5 mph N/A   Overcast
10:02 AM 51.8 °F 39.2 °F 62% 29.76 in 10.0 mi WNW 16.1 mph - N/A   Overcast
10:53 AM 54.0 °F 39.9 °F 59% 29.77 in 10.0 mi West 17.3 mph 23.0 mph N/A   Overcast
11:53 AM 54.0 °F 39.0 °F 57% 29.79 in 10.0 mi West 19.6 mph 25.3 mph N/A   Overcast
12:53 PM 53.1 °F 39.9 °F 61% 29.81 in 10.0 mi West 19.6 mph 25.3 mph N/A   Overcast
1:53 PM 55.0 °F 39.9 °F 57% 29.81 in 10.0 mi West 16.1 mph - N/A   Overcast
2:53 PM 53.1 °F 39.9 °F 61% 29.82 in 10.0 mi WNW 16.1 mph - N/A   Overcast
3:53 PM 53.1 °F 41.0 °F 64% 29.84 in 10.0 mi West 12.7 mph 24.2 mph N/A   Overcast
4:53 PM 52.0 °F 39.9 °F 63% 29.86 in 10.0 mi WNW 13.8 mph 20.7 mph N/A   Overcast
5:43 PM 51.8 °F 39.2 °F 62% 29.88 in 10.0 mi WNW 13.8 mph - N/A   Overcast
5:53 PM 51.1 °F 41.0 °F 68% 29.88 in 10.0 mi WNW 15.0 mph - N/A   Overcast
6:53 PM 51.1 °F 39.9 °F 66% 29.89 in 10.0 mi NW 9.2 mph - N/A   Overcast
7:53 PM 50.0 °F 39.9 °F 68% 29.91 in 10.0 mi WNW 6.9 mph - N/A   Overcast
8:53 PM 50.0 °F 39.9 °F 68% 29.92 in 10.0 mi WNW 10.4 mph - N/A   Overcast
9:53 PM 50.0 °F 39.9 °F 68% 29.93 in 10.0 mi WNW 8.1 mph - N/A   Overcast
10:53 PM 48.9 °F 39.0 °F 69% 29.94 in 10.0 mi WNW 8.1 mph - N/A   Overcast
11:53 PM 48.9 °F 39.0 °F 69% 29.94 in 10.0 mi NW 6.9 mph - N/A   Overcast